�������l�o���
Date,Time,MP-1(��Sv/h),MP-2(��Sv/h),MP-3(��Sv/h),MP-4(��Sv/h),MP-5(��Sv/h),MP-6(��Sv/h),MP-7(��Sv/h),MP-8(��Sv/h),����,����(m/s),���J
2017/08/18,00:00,0.930,1.461,0.967,1.747,1.189,0.511,0.931,0.863,�k�k��,0.9,��
2017/08/18,00:10,0.931,1.458,0.967,1.747,1.188,0.511,0.932,0.864,�k�k��,1.2,��
2017/08/18,00:20,0.931,1.458,0.967,1.745,1.190,0.511,0.932,0.863,�k,1.2,��
2017/08/18,00:30,0.931,1.460,0.966,1.748,1.190,0.511,0.931,0.863,�k�k��,0.9,��
2017/08/18,00:40,0.930,1.459,0.968,1.747,1.188,0.512,0.930,0.864,�k�k��,0.9,��
2017/08/18,00:50,0.932,1.460,0.967,1.748,1.191,0.510,0.932,0.863,�k��,2.2,��
2017/08/18,01:00,0.933,1.462,0.967,1.748,1.189,0.512,0.932,0.862,���k��,2.0,��
2017/08/18,01:10,0.932,1.462,0.969,1.748,1.189,0.512,0.933,0.862,���k��,1.7,��
2017/08/18,01:20,0.931,1.462,0.966,1.749,1.189,0.512,0.932,0.862,���k��,1.7,��
2017/08/18,01:30,0.931,1.460,0.967,1.748,1.189,0.512,0.932,0.864,�k��,1.2,��
2017/08/18,01:40,0.932,1.463,0.965,1.748,1.188,0.510,0.931,0.863,-,CALM,��
2017/08/18,01:50,0.932,1.463,0.968,1.749,1.189,0.510,0.932,0.864,�k�k��,0.8,��
2017/08/18,02:00,0.929,1.461,0.967,1.749,1.190,0.512,0.932,0.864,-,CALM,��
2017/08/18,02:10,0.933,1.461,0.965,1.748,1.188,0.511,0.935,0.864,-,CALM,��
2017/08/18,02:20,0.932,1.462,0.967,1.748,1.188,0.509,0.934,0.866,-,CALM,��
2017/08/18,02:30,0.934,1.462,0.966,1.748,1.188,0.512,0.933,0.864,-,CALM,��
2017/08/18,02:40,0.933,1.460,0.968,1.748,1.188,0.512,0.932,0.864,-,CALM,��
2017/08/18,02:50,0.934,1.461,0.968,1.745,1.190,0.512,0.933,0.863,�k��,0.6,��
2017/08/18,03:00,0.932,1.462,0.968,1.747,1.190,0.512,0.934,0.863,-,CALM,��
2017/08/18,03:10,0.931,1.461,0.968,1.749,1.189,0.512,0.933,0.863,-,CALM,��
2017/08/18,03:20,0.932,1.461,0.969,1.746,1.190,0.511,0.933,0.863,-,CALM,��
2017/08/18,03:30,0.932,1.463,0.967,1.747,1.190,0.513,0.934,0.864,�k,1.1,��
2017/08/18,03:40,0.934,1.462,0.968,1.751,1.191,0.512,0.932,0.866,�k�k��,1.1,��
2017/08/18,03:50,0.934,1.463,0.968,1.748,1.191,0.511,0.932,0.862,�k,1.9,��
2017/08/18,04:00,0.933,1.463,0.969,1.749,1.191,0.512,0.933,0.864,�k,1.2,��
2017/08/18,04:10,0.933,1.463,0.968,1.747,1.192,0.511,0.935,0.863,�k,1.2,��
2017/08/18,04:20,0.933,1.462,0.970,1.747,1.191,0.513,0.934,0.865,�k,1.2,��
2017/08/18,04:30,0.933,1.465,0.968,1.748,1.191,0.513,0.933,0.865,�k�k��,1.2,��
2017/08/18,04:40,0.933,1.464,0.968,1.750,1.191,0.512,0.933,0.863,�k,0.9,��
2017/08/18,04:50,0.935,1.464,0.969,1.749,1.190,0.512,0.933,0.865,�k��,1.4,��
2017/08/18,05:00,0.933,1.463,0.970,1.748,1.191,0.513,0.933,0.861,�k�k��,1.2,��
2017/08/18,05:10,0.931,1.462,0.968,1.749,1.187,0.512,0.934,0.864,�k�k��,1.1,��
2017/08/18,05:20,0.932,1.462,0.969,1.749,1.188,0.511,0.932,0.863,�k,0.9,��
2017/08/18,05:30,0.932,1.462,0.966,1.748,1.189,0.513,0.933,0.865,-,CALM,��
2017/08/18,05:40,0.932,1.461,0.970,1.747,1.190,0.512,0.934,0.863,-,CALM,��
2017/08/18,05:50,0.933,1.463,0.970,1.750,1.191,0.512,0.933,0.864,�k��,0.8,��
2017/08/18,06:00,0.932,1.462,0.967,1.750,1.189,0.512,0.933,0.864,�k�k��,0.6,�L
2017/08/18,06:10,0.934,1.461,0.968,1.750,1.189,0.512,0.933,0.864,-,CALM,�L
2017/08/18,06:20,0.931,1.462,0.969,1.750,1.191,0.512,0.934,0.863,�k�k��,0.9,�L
2017/08/18,06:30,0.933,1.463,0.969,1.752,1.190,0.512,0.934,0.864,�k,0.9,�L
2017/08/18,06:40,0.932,1.464,0.969,1.750,1.190,0.512,0.935,0.864,�k,0.9,�L
2017/08/18,06:50,0.932,1.464,0.969,1.753,1.191,0.512,0.933,0.864,�k�k��,0.8,�L
2017/08/18,07:00,0.933,1.466,0.970,1.749,1.195,0.513,0.933,0.864,�k��,1.2,�L
2017/08/18,07:10,0.934,1.462,0.971,1.749,1.192,0.514,0.934,0.863,�k��,1.7,�L
2017/08/18,07:20,0.934,1.461,0.971,1.751,1.190,0.516,0.934,0.864,�k��,1.9,�L
2017/08/18,07:30,0.932,1.460,0.970,1.748,1.187,0.511,0.934,0.863,�k��,1.1,�L
2017/08/18,07:40,0.929,1.456,0.968,1.743,1.186,0.513,0.932,0.862,�k�k��,0.6,�L
2017/08/18,07:50,0.928,1.454,0.967,1.745,1.184,0.512,0.932,0.862,-,CALM,�L
2017/08/18,08:00,0.930,1.453,0.967,1.743,1.183,0.512,0.930,0.863,�k,1.2,�L
2017/08/18,08:10,0.929,1.450,0.965,1.743,1.185,0.510,0.929,0.860,�k�k��,0.9,�L
2017/08/18,08:20,0.925,1.449,0.965,1.739,1.183,0.513,0.928,0.863,�k��,1.1,�L
2017/08/18,08:30,0.929,1.450,0.963,1.745,1.183,0.511,0.928,0.861,�k�k��,0.9,�L
2017/08/18,08:40,0.926,1.449,0.964,1.740,1.179,0.510,0.929,0.860,�k�k��,1.1,�L
2017/08/18,08:50,0.926,1.448,0.963,1.738,1.183,0.510,0.930,0.859,�k��,0.9,�L
2017/08/18,09:00,0.925,1.447,0.963,1.746,1.181,0.511,0.929,0.861,�k��,1.5,�L
2017/08/18,09:10,0.924,1.449,0.962,1.741,1.181,0.509,0.930,0.859,�k�k��,1.5,�L
2017/08/18,09:20,0.925,1.449,0.962,1.737,1.182,0.510,0.927,0.859,�k,1.7,�L
2017/08/18,09:30,0.925,1.449,0.961,1.741,1.185,0.510,0.928,0.860,�k�k��,1.5,�L
2017/08/18,09:40,0.925,1.449,0.960,1.738,1.185,0.508,0.930,0.859,�k,1.7,��
2017/08/18,09:50,0.925,1.449,0.963,1.741,1.181,0.508,0.930,0.860,�k,1.4,�L
2017/08/18,10:00,0.924,1.447,0.962,1.739,1.180,0.507,0.928,0.860,�k�k��,1.2,�L
2017/08/18,10:10,0.922,1.447,0.962,1.738,1.181,0.507,0.928,0.859,�쓌,0.9,�L
2017/08/18,10:20,0.924,1.449,0.962,1.741,1.181,0.507,0.929,0.859,�쓌,1.2,��
2017/08/18,10:30,0.925,1.446,0.962,1.739,1.181,0.507,0.928,0.860,��,1.5,��
2017/08/18,10:40,0.925,1.451,0.960,1.738,1.182,0.508,0.931,0.860,�k��,1.1,��
2017/08/18,10:50,0.924,1.448,0.960,1.741,1.182,0.508,0.930,0.861,�k�k��,0.9,��
2017/08/18,11:00,0.928,1.449,0.964,1.739,1.188,0.508,0.929,0.860,�k��,1.4,��
2017/08/18,11:10,0.927,1.451,0.961,1.741,1.184,0.508,0.931,0.859,���k��,1.4,��
2017/08/18,11:20,0.927,1.452,0.964,1.741,1.185,0.509,0.931,0.860,�k��,2.8,��
2017/08/18,11:30,0.929,1.455,0.960,1.739,1.186,0.508,0.931,0.860,���k��,2.6,�L
2017/08/18,11:40,0.928,1.453,0.961,1.740,1.183,0.509,0.931,0.859,���k��,2.6,�L
2017/08/18,11:50,0.929,1.454,0.962,1.739,1.183,0.510,0.932,0.861,��,2.3,�L
2017/08/18,12:00,0.927,1.453,0.963,1.738,1.183,0.510,0.930,0.859,��,2.6,�L
2017/08/18,12:10,0.928,1.453,0.961,1.741,1.184,0.509,0.929,0.860,��,2.3,�L
2017/08/18,12:20,0.928,1.454,0.963,1.737,1.183,0.510,0.930,0.859,��,2.0,�L
2017/08/18,12:30,0.926,1.451,0.961,1.737,1.181,0.509,0.930,0.859,���쓌,2.3,�L
2017/08/18,12:40,0.925,1.446,0.961,1.737,1.177,0.511,0.925,0.855,-,CALM,�L
2017/08/18,12:50,0.922,1.438,0.957,1.729,1.168,0.510,0.925,0.855,�쓌,4.4,�L
2017/08/18,13:00,0.917,1.429,0.957,1.723,1.166,0.510,0.924,0.852,��,4.3,�L
2017/08/18,13:10,0.918,1.433,0.955,1.723,1.166,0.512,0.923,0.853,�쓌,3.0,�L
2017/08/18,13:20,0.921,1.433,0.958,1.724,1.168,0.510,0.924,0.855,�쓌,2.6,�L
2017/08/18,13:30,0.921,1.433,0.957,1.724,1.167,0.513,0.923,0.853,�쓌,2.6,�L
2017/08/18,13:40,0.922,1.434,0.956,1.722,1.167,0.511,0.925,0.854,�쓌,2.3,�L
2017/08/18,13:50,0.917,1.435,0.956,1.722,1.168,0.510,0.923,0.855,��쓌,1.4,�L
2017/08/18,14:00,0.919,1.432,0.955,1.721,1.170,0.508,0.923,0.853,�쓌,1.5,�L
2017/08/18,14:10,0.917,1.431,0.956,1.725,1.168,0.510,0.924,0.856,�쓌,2.2,�L
2017/08/18,14:20,0.920,1.434,0.955,1.723,1.166,0.510,0.924,0.855,���쓌,2.0,�L
2017/08/18,14:30,0.917,1.430,0.956,1.723,1.168,0.507,0.923,0.853,�쓌,1.7,�L
2017/08/18,14:40,0.917,1.433,0.954,1.722,1.167,0.507,0.923,0.856,�쓌,1.7,�L
2017/08/18,14:50,0.915,1.434,0.955,1.722,1.166,0.506,0.924,0.854,���쓌,2.0,�L
2017/08/18,15:00,0.915,1.433,0.955,1.723,1.169,0.507,0.923,0.856,���쓌,2.3,�L
2017/08/18,15:10,0.916,1.433,0.954,1.725,1.167,0.508,0.921,0.856,�쓌,1.4,�L
2017/08/18,15:20,0.917,1.433,0.955,1.724,1.163,0.507,0.922,0.854,���쓌,0.8,�L
2017/08/18,15:30,0.914,1.434,0.954,1.723,1.166,0.506,0.920,0.855,��,0.8,�L
2017/08/18,15:40,0.917,1.432,0.956,1.721,1.165,0.508,0.922,0.856,�쓌,0.9,��
2017/08/18,15:50,0.914,1.432,0.955,1.723,1.165,0.508,0.925,0.855,-,CALM,��
2017/08/18,16:00,0.916,1.433,0.954,1.723,1.165,0.506,0.922,0.855,-,CALM,��
2017/08/18,16:10,0.916,1.434,0.954,1.720,1.167,0.507,0.923,0.855,-,CALM,��
2017/08/18,16:20,0.915,1.433,0.954,1.724,1.166,0.507,0.923,0.856,�k�k��,0.6,��
2017/08/18,16:30,0.915,1.432,0.955,1.721,1.167,0.504,0.923,0.856,�k,1.1,��
2017/08/18,16:40,0.914,1.434,0.954,1.721,1.165,0.506,0.922,0.854,���k��,1.2,��
2017/08/18,16:50,0.915,1.433,0.951,1.723,1.166,0.506,0.923,0.854,�k��,1.4,��
2017/08/18,17:00,0.915,1.434,0.952,1.723,1.165,0.505,0.921,0.855,�k��,1.4,��
2017/08/18,17:10,0.917,1.433,0.953,1.723,1.166,0.506,0.920,0.854,���k��,1.7,��
2017/08/18,17:20,0.916,1.433,0.952,1.724,1.166,0.505,0.923,0.856,�k��,1.9,��
2017/08/18,17:30,0.915,1.432,0.953,1.721,1.166,0.505,0.924,0.854,�k��,2.5,��
2017/08/18,17:40,0.917,1.434,0.953,1.724,1.169,0.507,0.923,0.855,�k��,3.6,��
2017/08/18,17:50,0.916,1.434,0.953,1.724,1.169,0.506,0.922,0.854,�k��,3.9,��
2017/08/18,18:00,0.914,1.434,0.953,1.724,1.170,0.505,0.923,0.856,���k��,3.6,��
2017/08/18,18:10,0.914,1.433,0.954,1.726,1.169,0.505,0.923,0.855,���k��,3.2,��
2017/08/18,18:20,0.916,1.436,0.951,1.723,1.167,0.504,0.923,0.854,�k��,3.1,��
2017/08/18,18:30,0.915,1.435,0.952,1.727,1.170,0.505,0.924,0.856,�k��,2.9,��
2017/08/18,18:40,0.914,1.435,0.955,1.725,1.170,0.505,0.925,0.856,�k��,2.6,��
2017/08/18,18:50,0.916,1.438,0.954,1.726,1.172,0.505,0.924,0.855,�k��,3.1,��
2017/08/18,19:00,0.917,1.435,0.952,1.726,1.171,0.505,0.924,0.854,�k��,1.7,��
2017/08/18,19:10,0.916,1.435,0.955,1.727,1.172,0.504,0.924,0.856,���k��,1.9,��
2017/08/18,19:20,0.917,1.437,0.954,1.723,1.173,0.505,0.927,0.855,�k��,0.9,��
2017/08/18,19:30,0.916,1.438,0.954,1.728,1.172,0.505,0.925,0.857,�k�k��,1.2,��
2017/08/18,19:40,0.916,1.437,0.955,1.727,1.171,0.506,0.923,0.856,�k�k��,1.7,��
2017/08/18,19:50,0.917,1.436,0.958,1.727,1.172,0.507,0.926,0.856,�k��,1.5,��
2017/08/18,20:00,0.915,1.439,0.956,1.728,1.172,0.503,0.925,0.858,�k�k��,1.7,��
2017/08/18,20:10,0.918,1.437,0.953,1.727,1.173,0.506,0.924,0.856,�k�k��,1.9,��
2017/08/18,20:20,0.918,1.440,0.954,1.727,1.175,0.507,0.923,0.856,�k�k��,2.5,��
2017/08/18,20:30,0.918,1.440,0.955,1.727,1.174,0.508,0.924,0.858,�k�k��,1.2,��
2017/08/18,20:40,0.917,1.440,0.955,1.729,1.173,0.505,0.925,0.857,�k��,1.2,��
2017/08/18,20:50,0.917,1.440,0.954,1.726,1.175,0.505,0.924,0.858,�k,1.7,��
2017/08/18,21:00,0.918,1.438,0.953,1.726,1.173,0.505,0.924,0.858,�k,1.4,��
2017/08/18,21:10,0.919,1.440,0.955,1.729,1.172,0.507,0.926,0.858,�k�k��,2.0,��
2017/08/18,21:20,0.918,1.441,0.957,1.729,1.174,0.505,0.925,0.857,�k�k��,1.2,��
2017/08/18,21:30,0.919,1.442,0.955,1.726,1.175,0.505,0.924,0.858,�k,1.2,��
2017/08/18,21:40,0.919,1.439,0.955,1.729,1.176,0.506,0.925,0.857,�k�k��,1.7,��
2017/08/18,21:50,0.918,1.441,0.956,1.728,1.174,0.505,0.926,0.859,�k,1.7,��
2017/08/18,22:00,0.917,1.441,0.955,1.732,1.176,0.507,0.926,0.855,�k,2.0,��
2017/08/18,22:10,0.918,1.441,0.956,1.730,1.172,0.508,0.925,0.858,�k�k��,2.3,��
2017/08/18,22:20,0.918,1.441,0.957,1.728,1.174,0.507,0.927,0.857,�k�k��,1.7,��
2017/08/18,22:30,0.918,1.440,0.956,1.728,1.175,0.507,0.924,0.858,�k�k��,2.0,��
2017/08/18,22:40,0.916,1.441,0.954,1.729,1.175,0.507,0.924,0.857,�k�k��,1.4,��
2017/08/18,22:50,0.918,1.442,0.959,1.731,1.174,0.507,0.925,0.857,�k�k��,1.9,��
2017/08/18,23:00,0.919,1.443,0.957,1.730,1.174,0.508,0.926,0.858,�k,2.3,��
2017/08/18,23:10,0.919,1.441,0.957,1.730,1.174,0.507,0.927,0.858,�k�k��,1.4,��
2017/08/18,23:20,0.920,1.441,0.956,1.729,1.175,0.506,0.925,0.858,�k,1.2,�L
2017/08/18,23:30,0.920,1.441,0.957,1.728,1.174,0.507,0.928,0.858,�k�k��,1.5,��
2017/08/18,23:40,0.919,1.441,0.958,1.727,1.175,0.506,0.925,0.859,�k,1.2,��
2017/08/18,23:50,0.920,1.443,0.956,1.730,1.175,0.506,0.928,0.858,�k,0.6,��
